EWG3C GCHI-GCGM

Flight info

Callsign EWG3C
Flight time 0h 27m
Altitude 10000
Route 275301N0174951W 274942N0174730W 275806N0171205W 280232N0170844W
Aircraft A320/M-SDE3FGHIRWY/LB1

Departure

Time 2026-04-12 13:34
Airport El Hierro Airport (GCHI)

Arrival

Time 2026-04-12 14:01
Airport La Gomera Airport (GCGM)
Time Latitude Longitude Altitude Speed Heading
2026-04-12 13:18 27.81335 -17.88525 104 ft 0 kts 150°
2026-04-12 13:19 27.81336 -17.88525 104 ft 0 kts 150°
2026-04-12 13:19 27.81336 -17.88526 104 ft 0 kts 150°
2026-04-12 13:30 27.81318 -17.88523 105 ft 3 kts 189°
2026-04-12 13:31 27.81305 -17.88537 104 ft 0 kts 230°
2026-04-12 13:31 27.81305 -17.88536 104 ft 0 kts 230°
2026-04-12 13:32 27.81303 -17.88540 105 ft 3 kts 230°
2026-04-12 13:32 27.81255 -17.88560 105 ft 12 kts 176°
2026-04-12 13:32 27.81105 -17.88477 106 ft 29 kts 152°
2026-04-12 13:32 27.81001 -17.88447 105 ft 8 kts 166°
2026-04-12 13:33 27.80999 -17.88408 102 ft 4 kts 18°
2026-04-12 13:33 27.81012 -17.88416 105 ft 0 kts 316°
2026-04-12 13:33 27.81014 -17.88417 105 ft 1 kts 323°
2026-04-12 13:33 27.81016 -17.88417 105 ft 0 kts 333°
2026-04-12 13:34 27.81058 -17.88443 106 ft 38 kts 332°
2026-04-12 13:34 27.81570 -17.88740 107 ft 122 kts 332°
2026-04-12 13:34 27.82413 -17.89248 677 ft 143 kts 340°
2026-04-12 13:34 27.83301 -17.89767 1515 ft 144 kts 343°
2026-04-12 13:35 27.84218 -17.90202 2188 ft 143 kts 356°
2026-04-12 13:35 27.85198 -17.90023 2574 ft 152 kts 32°
2026-04-12 13:35 27.86016 -17.89161 2862 ft 174 kts 55°
2026-04-12 13:35 27.86565 -17.87823 3136 ft 201 kts 64°
2026-04-12 13:36 27.87137 -17.86280 3515 ft 225 kts 69°
2026-04-12 13:36 27.87303 -17.84426 3948 ft 249 kts 92°
2026-04-12 13:36 27.86735 -17.82532 4644 ft 264 kts 115°
2026-04-12 13:36 27.85464 -17.80968 5359 ft 277 kts 134°
2026-04-12 13:37 27.84104 -17.79441 6048 ft 274 kts 120°
2026-04-12 13:37 27.83293 -17.77528 6706 ft 269 kts 98°
2026-04-12 13:37 27.83230 -17.75475 7294 ft 265 kts 76°
2026-04-12 13:37 27.83902 -17.73561 7883 ft 263 kts 53°
2026-04-12 13:38 27.85083 -17.71972 8517 ft 264 kts 47°
2026-04-12 13:38 27.86161 -17.70254 9091 ft 272 kts 56°
2026-04-12 13:38 27.86997 -17.68303 9699 ft 277 kts 60°
2026-04-12 13:38 27.87782 -17.66330 10151 ft 281 kts 62°
2026-04-12 13:39 27.88589 -17.64312 10251 ft 276 kts 62°
2026-04-12 13:39 27.89327 -17.62452 10264 ft 243 kts 59°
2026-04-12 13:39 27.89972 -17.60804 10269 ft 219 kts 59°
2026-04-12 13:39 27.90589 -17.59249 10269 ft 216 kts 60°
2026-04-12 13:40 27.91204 -17.57706 10267 ft 215 kts 61°
2026-04-12 13:40 27.91820 -17.56167 10272 ft 213 kts 59°
2026-04-12 13:40 27.92433 -17.54634 10273 ft 214 kts 60°
2026-04-12 13:40 27.93048 -17.53101 10276 ft 214 kts 58°
2026-04-12 13:41 27.93662 -17.51564 10244 ft 213 kts 59°
2026-04-12 13:41 27.94266 -17.50043 9954 ft 212 kts 59°
2026-04-12 13:41 27.94871 -17.48524 9676 ft 211 kts 61°
2026-04-12 13:41 27.95466 -17.47033 9417 ft 209 kts 60°
2026-04-12 13:42 27.96063 -17.45533 9051 ft 212 kts 60°
2026-04-12 13:42 27.96691 -17.43967 8525 ft 222 kts 61°
2026-04-12 13:42 27.97329 -17.42363 8171 ft 223 kts 61°
2026-04-12 13:42 27.97956 -17.40766 7866 ft 220 kts 61°
2026-04-12 13:43 27.98574 -17.39199 7658 ft 214 kts 62°
2026-04-12 13:43 27.99166 -17.37691 7520 ft 205 kts 63°
2026-04-12 13:43 27.99736 -17.36237 7364 ft 199 kts 63°
2026-04-12 13:43 28.00299 -17.34804 7280 ft 199 kts 63°
2026-04-12 13:44 28.00861 -17.33372 7275 ft 199 kts 64°
2026-04-12 13:44 28.01053 -17.31827 7275 ft 212 kts 97°
2026-04-12 13:44 28.00321 -17.30339 7276 ft 228 kts 136°
2026-04-12 13:44 27.98836 -17.29689 7272 ft 238 kts 179°
2026-04-12 13:45 27.97287 -17.30275 7272 ft 239 kts 222°
2026-04-12 13:45 27.96313 -17.31774 7277 ft 238 kts 246°
2026-04-12 13:45 27.95615 -17.33479 7275 ft 238 kts 250°
2026-04-12 13:45 27.94987 -17.35214 7273 ft 238 kts 251°
2026-04-12 13:46 27.94387 -17.36935 7274 ft 237 kts 256°
2026-04-12 13:46 27.94347 -17.38723 7269 ft 225 kts 295°
2026-04-12 13:46 27.95236 -17.40090 7264 ft 212 kts 331°
2026-04-12 13:46 27.96580 -17.40569 7267 ft 202 kts
2026-04-12 13:47 27.97886 -17.40093 7269 ft 201 kts 36°
2026-04-12 13:47 27.98726 -17.38819 7279 ft 208 kts 66°
2026-04-12 13:47 27.99266 -17.37288 7276 ft 210 kts 64°
2026-04-12 13:47 27.99849 -17.35793 7275 ft 210 kts 63°
2026-04-12 13:48 28.00455 -17.34283 7274 ft 210 kts 63°
2026-04-12 13:48 28.01003 -17.32746 7268 ft 213 kts 75°
2026-04-12 13:48 28.00900 -17.31066 7272 ft 221 kts 108°
2026-04-12 13:48 27.99908 -17.29705 7275 ft 232 kts 146°
2026-04-12 13:49 27.98358 -17.29274 7273 ft 239 kts 185°
2026-04-12 13:49 27.96854 -17.30020 7275 ft 240 kts 226°
2026-04-12 13:49 27.95980 -17.31598 7277 ft 237 kts 249°
2026-04-12 13:49 27.95311 -17.33309 7273 ft 238 kts 250°
2026-04-12 13:50 27.94646 -17.35029 7272 ft 239 kts 249°
2026-04-12 13:50 27.93980 -17.36747 7273 ft 238 kts 250°
2026-04-12 13:50 27.93677 -17.38517 7266 ft 229 kts 283°
2026-04-12 13:50 27.94297 -17.40101 7262 ft 217 kts 319°
2026-04-12 13:51 27.95538 -17.40968 7265 ft 207 kts 351°
2026-04-12 13:51 27.96929 -17.40942 7270 ft 200 kts 19°
2026-04-12 13:51 27.98097 -17.40103 7273 ft 201 kts 47°
2026-04-12 13:51 27.98782 -17.38730 7282 ft 207 kts 63°
2026-04-12 13:52 27.99372 -17.37225 7276 ft 210 kts 63°
2026-04-12 13:52 27.99963 -17.35706 7276 ft 211 kts 63°
2026-04-12 13:52 28.00555 -17.34183 7274 ft 210 kts 63°
2026-04-12 13:52 28.01059 -17.32629 7269 ft 213 kts 78°
2026-04-12 13:53 28.00893 -17.30980 7110 ft 220 kts 110°
2026-04-12 13:53 27.99880 -17.29673 6828 ft 228 kts 147°
2026-04-12 13:53 27.98331 -17.29280 6530 ft 235 kts 186°
2026-04-12 13:53 27.96829 -17.30028 5966 ft 245 kts 226°
2026-04-12 13:54 27.95947 -17.31649 5392 ft 243 kts 248°
2026-04-12 13:54 27.95261 -17.33409 4806 ft 246 kts 248°
2026-04-12 13:54 27.94570 -17.35196 4214 ft 249 kts 248°
2026-04-12 13:54 27.93886 -17.36996 3713 ft 247 kts 252°
2026-04-12 13:55 27.93742 -17.38808 3607 ft 218 kts 288°
2026-04-12 13:55 27.94372 -17.40179 3663 ft 180 kts 321°
2026-04-12 13:55 27.95333 -17.40917 3378 ft 156 kts 348°
2026-04-12 13:55 27.96284 -17.41086 3197 ft 129 kts
2026-04-12 13:56 27.97099 -17.40897 3048 ft 114 kts 24°
2026-04-12 13:56 27.97776 -17.40458 2864 ft 111 kts 39°
2026-04-12 13:56 27.98291 -17.39825 2692 ft 110 kts 52°
2026-04-12 13:56 27.98659 -17.39019 2516 ft 118 kts 61°
2026-04-12 13:57 27.98995 -17.38167 2344 ft 119 kts 61°
2026-04-12 13:57 27.99331 -17.37304 2163 ft 120 kts 61°
2026-04-12 13:57 27.99672 -17.36435 2070 ft 119 kts 61°
2026-04-12 13:57 28.00002 -17.35592 2015 ft 118 kts 61°
2026-04-12 13:58 28.00335 -17.34738 2006 ft 120 kts 60°
2026-04-12 13:58 28.00677 -17.33870 2005 ft 122 kts 62°
2026-04-12 13:58 28.01020 -17.32998 2018 ft 120 kts 60°
2026-04-12 13:58 28.01359 -17.32134 2017 ft 120 kts 61°
2026-04-12 13:59 28.01617 -17.31243 1912 ft 118 kts 72°
2026-04-12 13:59 28.01750 -17.30297 1641 ft 131 kts 78°
2026-04-12 13:59 28.01866 -17.29219 1618 ft 140 kts 75°
2026-04-12 13:59 28.02017 -17.28128 1721 ft 136 kts 75°
2026-04-12 14:00 28.02190 -17.27074 1723 ft 136 kts 73°
2026-04-12 14:00 28.02414 -17.26057 1706 ft 125 kts 72°
2026-04-12 14:00 28.02479 -17.25140 1555 ft 118 kts 85°
2026-04-12 14:00 28.02550 -17.24117 1202 ft 135 kts 74°
2026-04-12 14:01 28.02750 -17.23061 934 ft 138 kts 76°
2026-04-12 14:01 28.02879 -17.22035 737 ft 124 kts 73°
2026-04-12 14:01 28.02991 -17.21242 721 ft 64 kts 80°
2026-04-12 14:01 28.03020 -17.21111 721 ft 5 kts 21°
2026-04-12 14:02 28.03069 -17.21122 720 ft 9 kts 345°
2026-04-12 14:02 28.03106 -17.21133 720 ft 0 kts 347°
2026-04-12 14:02 28.03120 -17.21136 720 ft 0 kts 348°